星链-5511 (STARLINK-5511 )

导读 | 星芒AI

STARLINK-5511 是 SpaceX Starlink 卫星互联网项目中的一个成员,属于低轨卫星通信网络的一部分。该卫星旨在为全球用户提供高速互联网服务,尤其关注网络覆盖不足的地区。它采用先进的通信技术,支持高速数据传输和低延迟,提升用户体验。STARLINK-5511 与其他 Starlink 卫星协同工作,构建起一个庞大的太空通信网络,助力实现全球互联网连接的愿景。

基本信息
目录编号:
57252
目录名称:
STARLINK-5511
国际标识:
2023-094AL
轨道中心:
EARTH
卫星名称:
星链-5511
卫星全名:
星链-5511 (STARLINK-5511 )
卫星状态:
在轨 (已飞行898 天)
发射日期:
2023-07-07 UTC
国别 :
美国 (US)
星等 :
--
轨道信息
数据来源 国际轨道数据 AOE轨道数据
星历时间 2025-12-21T06:32:17+0800
14小时前
查看轨道信息
2025-12-15T11:00:00+0800
6天前
查看轨道信息
半长轴 6937.219km 6937.247km
偏心率 0.0001452 0.0001297
轨道倾角 43.004° 43.004°
近地点辐角 266.277° 252.262°
升交点赤经 85.245° 116.839°
平近点角 93.791° 302.581°
近地点 558.074km 558.212km
远地点 560.09km 560.012km
周期 95.838分钟 95.839分钟
每日圈数 15.025355 15.025262
详细信息
固有亮度:
5
最大亮度:
2.4
卫星平台:
Starlink v1.5
覆盖范围:
全球
运营商:
太空探索技术公司
运营商所在国:
美国
制造商(研发单位):
太空探索技术公司
制造商所在国:
美国
使用方式:
暂无
卫星简介
星链(Starlink)计划是由太空探索技术公司(SpaceX)提出的一个巨型低轨卫星互联网星座项目,计划在2019年至2024年间在太空搭建由约1.2万颗卫星组成的“星链”网络,其中1584颗将部署在地球上空550千米处的近地轨道,并从2020年开始工作。该卫星仍在工作。
2D轨道图
3D轨道图
轨道高度分析图
轨道倾角分析图
轨道综合分析图
查看轨道综合分析图